Miscellaneous Local Product
Issued by NWS Hastings, NE

Home | Current Version | Previous Version | Graphics & Text | Print | Product List | Glossary On
Versions: 1 2 3 4 5 6 7 8 9 10 11 12 13 14 15 16 17 18 19 20 21 22 23 24 25 26 27 28 29 30 31 32 33 34 35 36 37 38 39 40 41 42 43 44 45 46 47 48 49 50
000
AXUS43 KGID 290502
MISGRI

GID CWA HOURLY WEATHER ROUNDUP
NATIONAL WEATHER SERVICE HASTINGS NE
1200 AM CDT FRI AUG 29 2014

NOTE: "FAIR" INDICATES FEW OR NO CLOUDS BELOW 12,000 FEET WITH NO
SIGNIFICANT WEATHER AND/OR OBSTRUCTIONS TO VISIBILITY.

...SOUTH CENTRAL NEBRASKA...

CITY           SKY/WX    TMP DP  RH WIND       PRES   REMARKS
GRAND ISLAND   CLOUDY    74  68  81 SW6       29.85R
HASTINGS       CLOUDY    69  61  75 S7        29.85S
KEARNEY        CLOUDY    72  64  78 NW3       29.86S
ORD            MOCLDY    65  63  93 CALM      29.85F
YORK           CLOUDY    72 N/A N/A S7        29.84F
AURORA         CLOUDY    71  69  95 SW5       29.84F
LEXINGTON      MOCLDY    66  64  92 NW5       29.89F
HOLDREGE       CLOUDY    69  65  88 CALM      29.85F
HEBRON         CLOUDY    70  63  77 CALM      29.84S

...NEBRASKA PANHANDLE...

CITY           SKY/WX    TMP DP  RH WIND       PRES   REMARKS
CHADRON        PTCLDY    57  54  89 CALM      29.97R
ALLIANCE       MOCLDY    59  53  80 W7        30.01R
SCOTTSBLUFF    PTCLDY    56  53  90 E6        30.03R
SIDNEY         MOCLDY    59  52  77 W9        30.05S

...WESTERN AND NORTH CENTRAL NEBRASKA...

CITY           SKY/WX    TMP DP  RH WIND       PRES   REMARKS
VALENTINE      MOCLDY    64  63  96 W3        29.90R
AINSWORTH      PTCLDY    60  59  97 W6        29.89S
ONEILL         CLOUDY    67  67  99 SW3       29.85R
BROKEN BOW     CLOUDY    65  62  90 CALM      29.89S
IMPERIAL       PTCLDY    61  56  83 NW7       29.97S
NORTH PLATTE   PTCLDY    61  58  90 NW5       29.93F
MCCOOK         PTCLDY    64  58  80 NW12      29.92F

...EASTERN NEBRASKA...

CITY           SKY/WX    TMP DP  RH WIND       PRES   REMARKS
NORFOLK        CLOUDY    71  68  90 S6        29.82F
SO SIOUX CITY  MOCLDY    73  71  93 SE6       29.82F
TEKAMAH        PTCLDY    72  71  97 SE8       29.83F FOG
COLUMBUS       MOCLDY    72  66  83 SE5       29.84F
ALBION         LGT RAIN  68  65  89 CALM      29.84F
OMAHA EPPLEY   MOCLDY    73  68  84 SE8       29.85S
OFFUTT AFB     MOCLDY    73  73  99 SE6       29.85S
MILLARD        MOCLDY    75  73  92 CALM      29.85S
LINCOLN        MOCLDY    74  68  81 SE5       29.85S
NEBRASKA CITY  CLOUDY    73  73  97 SE3       29.86F
BEATRICE       CLOUDY    73  69  87 SE3       29.85S
FALLS CITY     MOCLDY    76  73  91 CALM      29.86R

...NORTHERN KANSAS...

CITY           SKY/WX    TMP DP  RH WIND       PRES   REMARKS
GOODLAND       PTCLDY    60  57  89 NW6       30.00F
HILL CITY      LGT RAIN  68  60  75 SW3       29.89F
NORTON         CLEAR     68  57  68 W8        29.87F
SMITH CENTER   CLEAR     68  63  83 S7        29.84F
BELOIT         CLEAR     72  64  78 SE3       29.82S
HAYS           CLOUDY    72  59  64 W18G24    29.91R
RUSSELL        CLOUDY    71  66  84 S13       29.85F
CONCORDIA      CLOUDY    72  68  87 S9        29.83S
SALINA         CLOUDY    73  65  75 S7        29.84S
TOPEKA         MOCLDY    81  64  56 S6        29.87S



USA.gov is the U.S. government's official web portal to all federal, state and local government web resources and services.